Precipitable_Water
0.14 0.14 0.14 0.13 0.13 0.17 0.16 0.17 0.15 0.16 0.20 0.26 0.30 0.34 0.35 0.39 0.40 0.38 0.40 0.42 0.39 0.40 0.40 0.41 0.41 0.42 0.39 0.40 0.42 0.46 0.47 0.52 0.55 0.58 0.62 0.64 0.69 0.73 0.84 0.85 0.89 0.94 0.99 1.19
0.11 0.12 0.14 0.13 0.15 0.15 0.17 0.20 0.20 0.20 0.21 0.32 0.33 0.36 0.34 0.35 0.35 0.35 0.40 0.41 0.41 0.44 0.43 0.42 0.45 0.42 0.38 0.38 0.41 0.44 0.43 0.46 0.56 0.57 0.58 0.62 0.63 0.69 0.77 0.82 0.85 0.94 1.00 1.00
0.09 0.14 0.15 0.11 0.12 0.15 0.18 0.22 0.20 0.15 0.20 0.28 0.28 0.31 0.31 0.30 0.32 0.33 0.37 0.40 0.43 0.44 0.43 0.44 0.47 0.45 0.39 0.39 0.40 0.40 0.40 0.42 0.50 0.58 0.57 0.57 0.62 0.63 0.66 0.74 0.83 0.89 0.99 1.04
0.12 0.14 0.08 0.11 0.17 0.19 0.19 0.20 0.22 0.23 0.24 0.26 0.28 0.30 0.32 0.34 0.33 0.32 0.34 0.39 0.43 0.43 0.42 0.45 0.47 0.44 0.41 0.38 0.37 0.38 0.39 0.40 0.44 0.53 0.61 0.61 0.56 0.61 0.65 0.69 0.74 0.80 0.87 1.01
0.12 0.13 0.13 0.13 0.14 0.20 0.18 0.14 0.22 0.22 0.23 0.26 0.30 0.29 0.27 0.32 0.34 0.35 0.35 0.39 0.40 0.40 0.42 0.44 0.43 0.43 0.39 0.35 0.35 0.35 0.35 0.38 0.42 0.47 0.54 0.62 0.60 0.57 0.63 0.68 0.71 0.76 0.79 0.89
0.17 0.13 0.10 0.14 0.22 0.22 0.24 0.13 0.23 0.26 0.24 0.25 0.27 0.19 0.23 0.30 0.33 0.36 0.39 0.39 0.35 0.38 0.41 0.41 0.41 0.42 0.37 0.35 0.34 0.32 0.34 0.37 0.43 0.44 0.48 0.52 0.57 0.61 0.59 0.64 0.69 0.72 0.76 0.82
0.16 0.15 0.16 0.19 0.20 0.24 0.15 0.15 0.24 0.27 0.26 0.27 0.24 0.25 0.31 0.33 0.32 0.34 0.35 0.35 0.36 0.37 0.37 0.39 0.40 0.41 0.35 0.34 0.32 0.33 0.36 0.37 0.39 0.44 0.45 0.46 0.49 0.53 0.60 0.60 0.61 0.67 0.71 0.75
0.18 0.16 0.13 0.23 0.23 0.18 0.22 0.26 0.28 0.29 0.30 0.29 0.30 0.32 0.33 0.32 0.30 0.32 0.33 0.35 0.37 0.35 0.36 0.37 0.39 0.38 0.34 0.33 0.34 0.35 0.36 0.35 0.35 0.38 0.41 0.45 0.44 0.45 0.47 0.54 0.60 0.58 0.61 0.69
0.19 0.17 0.24 0.28 0.26 0.28 0.29 0.27 0.28 0.30 0.31 0.32 0.32 0.33 0.33 0.30 0.30 0.31 0.33 0.34 0.36 0.35 0.35 0.37 0.37 0.37 0.33 0.34 0.34 0.32 0.32 0.32 0.32 0.34 0.37 0.39 0.39 0.41 0.42 0.42 0.46 0.52 0.57 0.58
0.19 0.19 0.20 0.22 0.26 0.27 0.27 0.27 0.31 0.35 0.33 0.34 0.31 0.34 0.33 0.31 0.30 0.30 0.32 0.32 0.35 0.35 0.34 0.33 0.36 0.35 0.34 0.31 0.30 0.29 0.28 0.28 0.29 0.29 0.31 0.34 0.36 0.37 0.39 0.40 0.39 0.40 0.45 0.54
0.18 0.19 0.20 0.20 0.21 0.23 0.23 0.24 0.27 0.30 0.31 0.33 0.35 0.34 0.35 0.32 0.32 0.32 0.31 0.31 0.31 0.30 0.30 0.30 0.30 0.28 0.26 0.26 0.28 0.28 0.28 0.28 0.28 0.28 0.29 0.29 0.31 0.33 0.34 0.39 0.42 0.39 0.40 0.44
0.16 0.19 0.21 0.20 0.22 0.24 0.24 0.25 0.26 0.26 0.30 0.35 0.38 0.36 0.36 0.33 0.33 0.33 0.31 0.29 0.26 0.26 0.24 0.22 0.22 0.22 0.23 0.26 0.28 0.27 0.27 0.27 0.27 0.27 0.27 0.28 0.27 0.28 0.34 0.36 0.38 0.41 0.44 0.43
0.22 0.24 0.24 0.25 0.26 0.28 0.28 0.26 0.26 0.28 0.36 0.38 0.40 0.38 0.36 0.34 0.34 0.31 0.27 0.24 0.24 0.22 0.22 0.23 0.23 0.23 0.25 0.28 0.29 0.28 0.27 0.27 0.27 0.26 0.26 0.25 0.26 0.25 0.24 0.29 0.34 0.36 0.38 0.41
0.28 0.27 0.24 0.25 0.23 0.27 0.30 0.30 0.29 0.33 0.41 0.41 0.38 0.39 0.37 0.33 0.31 0.27 0.24 0.24 0.24 0.23 0.22 0.23 0.23 0.23 0.26 0.27 0.29 0.28 0.28 0.29 0.27 0.27 0.26 0.26 0.26 0.26 0.27 0.26 0.25 0.27 0.33 0.35
0.28 0.30 0.28 0.28 0.28 0.31 0.32 0.30 0.29 0.35 0.37 0.39 0.40 0.37 0.35 0.30 0.25 0.24 0.24 0.25 0.25 0.25 0.24 0.24 0.23 0.23 0.26 0.27 0.26 0.26 0.27 0.27 0.27 0.27 0.26 0.26 0.27 0.27 0.27 0.27 0.27 0.27 0.29 0.31
0.29 0.31 0.31 0.27 0.29 0.31 0.32 0.31 0.33 0.36 0.38 0.40 0.39 0.36 0.34 0.28 0.25 0.25 0.27 0.28 0.24 0.21 0.23 0.22 0.20 0.22 0.25 0.25 0.24 0.25 0.25 0.25 0.26 0.26 0.25 0.25 0.26 0.26 0.26 0.26 0.26 0.27 0.27 0.29
0.26 0.25 0.30 0.30 0.29 0.30 0.30 0.34 0.36 0.39 0.42 0.40 0.37 0.35 0.29 0.27 0.27 0.26 0.25 0.25 0.25 0.23 0.22 0.21 0.21 0.24 0.25 0.26 0.26 0.26 0.26 0.25 0.25 0.25 0.25 0.25 0.26 0.26 0.27 0.27 0.27 0.27 0.27 0.30
0.37 0.35 0.35 0.35 0.32 0.30 0.32 0.36 0.40 0.42 0.42 0.39 0.35 0.29 0.28 0.27 0.25 0.24 0.23 0.23 0.22 0.20 0.20 0.22 0.24 0.25 0.26 0.26 0.27 0.27 0.26 0.25 0.25 0.24 0.25 0.25 0.26 0.27 0.28 0.27 0.28 0.27 0.28 0.30
0.44 0.40 0.39 0.37 0.38 0.38 0.39 0.42 0.45 0.44 0.39 0.32 0.29 0.28 0.29 0.28 0.26 0.25 0.25 0.23 0.21 0.19 0.19 0.21 0.23 0.24 0.24 0.23 0.24 0.25 0.26 0.25 0.24 0.25 0.26 0.27 0.27 0.28 0.28 0.28 0.28 0.28 0.29 0.29
0.43 0.44 0.46 0.46 0.46 0.44 0.41 0.40 0.37 0.35 0.34 0.32 0.31 0.30 0.27 0.27 0.27 0.25 0.24 0.21 0.21 0.22 0.22 0.22 0.23 0.22 0.21 0.21 0.21 0.23 0.24 0.23 0.24 0.24 0.26 0.26 0.27 0.27 0.28 0.29 0.29 0.29 0.30 0.31
0.38 0.40 0.40 0.40 0.39 0.38 0.36 0.35 0.33 0.30 0.31 0.33 0.30 0.27 0.27 0.27 0.27 0.26 0.23 0.20 0.21 0.23 0.23 0.22 0.20 0.19 0.20 0.19 0.20 0.21 0.22 0.23 0.23 0.24 0.24 0.25 0.26 0.27 0.28 0.28 0.29 0.31 0.31 0.32
0.33 0.33 0.33 0.35 0.34 0.33 0.33 0.33 0.31 0.30 0.28 0.27 0.26 0.26 0.26 0.25 0.26 0.25 0.26 0.23 0.23 0.24 0.21 0.19 0.19 0.19 0.19 0.19 0.20 0.20 0.22 0.23 0.24 0.24 0.24 0.26 0.27 0.27 0.28 0.29 0.30 0.33 0.34 0.34
0.31 0.31 0.30 0.30 0.29 0.30 0.33 0.33 0.33 0.33 0.32 0.30 0.29 0.28 0.27 0.27 0.27 0.24 0.22 0.24 0.23 0.21 0.20 0.18 0.18 0.19 0.19 0.19 0.19 0.20 0.21 0.23 0.23 0.24 0.25 0.26 0.27 0.28 0.28 0.29 0.32 0.34 0.35 0.35
0.23 0.25 0.27 0.28 0.30 0.29 0.28 0.30 0.32 0.34 0.32 0.31 0.31 0.31 0.30 0.27 0.27 0.29 0.26 0.24 0.21 0.19 0.18 0.18 0.18 0.18 0.18 0.18 0.19 0.20 0.22 0.23 0.24 0.25 0.26 0.28 0.28 0.29 0.30 0.32 0.33 0.35 0.36 0.35
0.19 0.20 0.20 0.22 0.23 0.24 0.26 0.27 0.30 0.33 0.32 0.31 0.32 0.31 0.31 0.31 0.28 0.27 0.25 0.21 0.20 0.18 0.16 0.16 0.16 0.16 0.16 0.17 0.18 0.20 0.23 0.24 0.25 0.26 0.27 0.28 0.29 0.30 0.32 0.34 0.36 0.36 0.36 0.35
0.18 0.18 0.19 0.19 0.20 0.24 0.24 0.27 0.26 0.28 0.31 0.32 0.32 0.31 0.31 0.30 0.28 0.26 0.22 0.20 0.17 0.16 0.15 0.15 0.14 0.14 0.13 0.13 0.16 0.21 0.23 0.24 0.26 0.27 0.28 0.29 0.30 0.31 0.33 0.35 0.36 0.36 0.37 0.37
0.21 0.21 0.19 0.18 0.19 0.21 0.22 0.24 0.25 0.26 0.32 0.31 0.29 0.30 0.28 0.28 0.25 0.22 0.20 0.17 0.16 0.14 0.14 0.13 0.12 0.12 0.12 0.13 0.18 0.22 0.24 0.25 0.27 0.28 0.29 0.29 0.31 0.33 0.33 0.34 0.36 0.38 0.39 0.39
Wind_Speed
18 17 15 18 18 16 12 14 13 20 23 22 17 16 14 12 14 15 17 18 18 19 21 22 22 22 23 23 22 23 24 27 33 38 44 46 47 49 50 52 53 55 55 55
17 18 16 19 19 17 18 16 15 18 17 15 15 14 11 11 13 15 16 16 17 18 18 19 20 21 22 23 24 24 25 26 28 32 38 44 47 48 48 50 52 53 54 55
16 15 17 19 15 14 13 13 13 15 16 15 15 16 14 14 14 16 16 16 17 18 17 18 18 20 21 22 23 24 25 26 26 29 33 39 44 47 48 49 49 52 52 51
15 15 14 14 13 14 13 15 15 16 17 17 17 18 19 17 18 18 18 19 19 18 17 18 19 20 21 21 21 22 22 24 25 26 28 32 36 43 46 46 48 49 50 51
13 14 18 19 16 11 14 17 17 16 18 17 18 19 20 20 20 21 21 21 21 19 19 19 20 21 21 21 20 21 21 21 23 23 24 25 29 34 40 43 45 46 47 47
13 13 14 13 12 15 16 17 14 16 18 18 18 19 18 20 21 22 23 22 21 21 20 21 21 22 21 20 20 21 21 21 22 21 21 21 23 27 31 37 42 43 45 45
17 17 18 18 19 17 14 15 16 18 19 19 19 19 19 21 21 21 21 21 22 22 22 22 22 21 21 20 20 22 21 21 21 21 20 20 20 21 25 30 36 39 42 43
15 16 20 18 15 16 17 19 21 20 21 22 23 21 20 21 22 22 21 21 22 22 23 23 22 21 21 21 22 21 21 20 21 21 20 19 20 20 21 23 28 33 38 40
17 18 19 18 19 21 22 23 23 22 23 21 19 19 20 22 23 22 21 21 21 21 22 22 23 22 22 23 22 22 22 21 22 22 21 20 20 19 19 21 24 27 31 37
22 22 25 27 27 28 27 27 26 25 24 22 21 21 22 22 21 20 20 21 22 22 22 22 23 24 24 24 24 23 23 22 23 22 22 21 20 19 19 20 21 23 27 31
26 29 29 28 26 27 26 27 27 27 26 24 22 22 23 22 21 21 21 23 23 23 23 23 24 24 25 25 24 24 24 24 24 24 23 23 22 21 21 20 21 22 24 27
25 26 25 26 25 25 26 26 27 26 24 22 21 22 21 21 21 22 23 24 23 23 24 24 24 24 24 25 26 26 27 26 27 26 26 25 24 24 22 22 22 22 22 24
30 30 30 30 29 29 28 30 28 25 22 19 19 20 20 21 22 23 23 24 24 25 26 26 26 27 27 27 27 29 29 30 29 29 29 29 28 26 26 24 23 22 22 23
29 30 30 29 29 28 28 28 25 22 20 20 19 20 20 21 23 23 24 25 26 27 27 28 28 29 29 29 30 30 31 32 32 32 32 31 31 30 28 27 25 25 24 23
30 30 31 30 29 28 27 25 21 19 19 18 19 20 20 21 23 24 25 25 26 26 27 28 29 30 30 31 31 32 32 32 32 33 34 33 33 32 31 29 28 28 27 26
29 29 29 28 26 26 24 21 19 19 19 20 20 21 21 22 23 24 24 24 25 26 28 30 31 32 32 32 31 31 31 31 33 33 33 33 33 32 32 32 31 30 29 29
31 30 28 26 26 25 23 21 21 19 20 19 20 21 21 22 24 24 24 26 27 29 31 31 31 32 32 31 30 29 29 30 30 30 30 30 31 31 32 32 32 33 32 32
30 30 30 28 26 25 24 21 20 20 20 20 20 20 22 23 25 26 27 28 29 30 30 30 32 33 32 30 29 28 29 29 29 28 28 28 29 30 31 32 33 33 34 34
24 25 24 24 22 20 18 17 18 18 19 19 20 22 23 25 25 26 28 29 31 31 31 33 33 33 32 32 31 30 29 29 29 29 28 28 28 29 30 30 32 33 34 35
19 16 12 13 13 13 13 14 16 18 20 21 23 25 25 25 27 28 29 30 32 33 34 33 33 33 34 33 32 30 29 30 30 30 29 29 29 29 30 31 32 32 33 34
17 16 15 14 14 15 15 18 20 22 23 25 25 26 26 27 29 30 31 32 33 34 34 35 35 35 33 33 32 30 30 30 30 30 30 30 29 29 30 30 31 31 32 33
20 20 20 21 21 21 23 23 24 25 26 27 27 28 29 30 31 32 33 35 36 36 36 35 34 34 34 34 32 31 29 29 30 30 30 29 29 29 29 30 31 31 31 32
24 25 26 25 26 26 27 28 29 30 30 30 30 31 32 33 34 35 37 37 38 38 37 35 35 34 33 33 32 30 29 29 29 30 29 28 27 27 28 28 30 30 31 31
30 30 30 31 31 30 31 31 32 32 33 33 34 35 36 36 37 39 40 39 39 37 36 34 33 33 33 32 31 29 28 28 29 29 28 27 26 27 27 28 29 29 29 30
35 35 35 35 35 35 35 36 36 36 37 36 37 37 37 38 39 39 39 39 37 36 33 32 32 32 31 31 30 29 27 28 28 28 27 26 26 26 27 29 30 30 31 32
38 38 38 39 39 38 38 38 38 38 38 38 38 38 38 39 39 39 38 35 33 31 30 30 30 30 30 31 29 27 27 27 27 27 26 26 26 27 28 29 31 32 32 32
39 40 39 39 39 39 39 39 39 37 36 36 35 36 35 34 33 32 31 29 29 28 29 29 29 29 29 29 27 26 26 26 26 26 25 25 26 26 29 31 32 32 32 32
Wind_Direction
299 301 304 305 306 310 308 307 315 318 323 328 322 315 300 292 293 298 297 296 296 294 297 297 297 297 297 302 299 294 289 277 264 258 252 250 250 250 249 248 248 248 247 246
301 296 295 300 300 302 300 305 302 308 319 325 327 328 319 306 304 303 304 303 304 304 304 305 305 302 302 300 299 297 292 287 279 267 259 253 251 250 250 249 248 249 248 247
300 305 307 306 291 299 303 305 310 313 312 318 318 318 317 312 307 307 303 302 307 309 307 308 311 311 309 308 305 300 296 291 289 278 268 260 253 250 249 250 249 248 248 248
295 306 308 299 304 297 294 303 303 308 311 307 305 306 308 305 301 303 301 301 305 306 304 307 311 314 314 313 312 312 306 296 295 291 278 267 259 252 249 250 249 249 247 248
295 293 299 300 293 294 301 303 298 304 310 310 311 313 308 307 301 296 298 300 300 300 300 304 309 312 313 315 315 316 315 313 307 299 287 278 265 258 252 249 248 249 248 248
293 292 294 299 294 301 307 302 295 302 307 308 314 313 309 313 311 303 301 297 295 296 299 301 306 309 310 312 315 318 317 316 319 311 298 288 278 265 258 252 248 249 248 247
279 287 293 288 288 298 295 299 305 306 304 304 306 305 309 316 316 314 310 303 298 293 294 297 301 303 308 308 312 315 316 317 318 320 310 299 290 281 268 259 253 250 249 247
284 287 292 291 293 279 293 297 303 302 302 302 303 301 302 310 314 314 313 314 306 299 294 295 297 298 301 304 309 312 313 315 317 318 317 309 301 291 282 271 261 256 252 249
274 281 288 292 291 291 295 295 297 298 302 303 304 303 304 309 312 314 313 314 316 310 302 295 296 295 295 300 303 306 308 310 314 316 317 315 310 305 292 283 272 266 258 252
287 285 282 285 286 287 290 291 291 292 294 294 294 297 302 308 309 311 314 315 315 314 312 304 297 295 294 296 298 300 302 305 309 310 313 314 311 308 303 296 286 278 268 259
285 287 287 286 286 291 287 288 287 287 289 286 289 292 298 303 304 307 310 313 314 313 311 310 306 299 294 293 294 295 298 299 304 305 308 309 309 306 305 300 296 288 280 270
284 286 285 286 289 290 292 291 288 287 287 281 283 292 297 300 301 305 308 310 312 313 313 311 310 307 302 296 293 293 293 295 298 299 301 303 303 303 301 300 300 293 289 282
281 284 284 285 286 286 288 290 284 283 279 280 286 291 295 297 301 304 307 308 308 309 309 307 307 306 305 300 297 293 291 293 293 294 295 297 297 297 297 297 298 295 293 290
287 287 286 284 283 286 289 288 280 274 272 278 284 290 292 296 301 303 305 307 308 308 309 307 305 305 304 302 298 296 293 291 290 290 291 291 291 291 290 290 291 292 291 291
288 287 285 285 284 283 286 282 272 268 271 277 284 288 292 297 301 302 305 308 311 311 311 311 310 307 306 303 300 298 295 293 292 289 288 287 286 285 285 285 284 285 287 287
291 289 288 283 279 280 288 275 269 267 271 277 280 286 291 295 302 304 305 309 312 314 314 313 313 312 308 305 302 301 300 296 293 291 289 286 283 282 281 281 281 281 281 282
288 287 286 284 275 276 277 276 266 263 270 276 279 287 292 296 301 303 304 307 309 311 313 313 315 316 315 310 305 302 302 303 301 297 291 289 284 281 280 280 279 278 278 278
289 284 281 281 279 271 273 270 264 265 270 276 282 288 294 298 300 301 303 305 307 310 312 313 315 316 317 313 308 305 304 305 305 302 297 293 288 285 283 281 280 279 278 277
307 300 285 282 274 272 270 266 265 267 272 278 284 289 293 297 299 302 305 308 308 307 308 311 313 313 314 314 309 305 303 304 305 303 300 297 293 289 286 285 283 281 279 278
305 317 314 297 282 272 268 266 271 276 280 283 286 291 294 295 298 302 305 307 307 306 308 309 310 311 312 312 310 305 302 303 304 302 300 298 296 293 290 288 286 285 282 279
310 304 299 297 288 279 275 279 281 281 282 284 287 290 292 296 298 301 304 305 308 308 307 307 308 309 310 310 310 304 301 302 303 302 301 299 297 295 293 292 290 288 285 282
300 301 296 290 286 281 282 283 285 286 286 286 288 290 292 295 298 300 303 304 306 306 306 306 306 307 308 309 308 304 301 301 302 303 302 300 298 297 296 295 293 292 290 285
291 292 292 289 287 284 282 282 284 284 285 286 286 288 292 294 296 299 301 304 305 304 304 303 304 305 306 308 307 304 301 301 302 303 302 300 299 300 299 300 299 295 292 290
291 291 290 288 286 285 282 283 285 285 284 285 286 288 291 294 295 298 300 300 302 302 302 301 302 303 305 307 306 303 301 302 303 304 302 300 300 300 301 303 303 301 298 295
289 288 286 285 284 283 282 282 283 283 283 284 285 289 291 293 295 298 299 299 299 300 299 300 301 302 304 306 306 302 301 302 304 304 302 300 302 302 303 304 304 303 301 298
289 288 287 283 282 283 284 283 282 284 283 283 286 288 290 293 294 296 297 298 298 298 298 300 301 302 303 305 304 301 301 303 305 305 302 302 302 303 304 306 307 306 304 301
289 289 288 286 284 282 283 282 282 283 282 284 285 288 292 295 296 297 297 298 298 298 299 301 302 302 303 304 302 301 302 304 305 306 304 304 304 306 308 309 309 308 307 306